Location: Powder Track
(41.8531°N, 72.3584°W)
Time: 16:26:40
(UTC+00:00)

A-11 Canister half - Pass Details

Date: 31 July 2021
Orbit: 1526 x 1683 km, 47.3° (Epoch: 16 September)

Event Time Altitude Azimuth Distance (km) Brightness Sun altitude
Rises 01:08:51 0° 288° (WNW) 4,814 13.2 -10.3°
Reaches altitude 10° 01:14:08 10° 265° (W) 3,788 11.8 -11.1°
Maximum altitude 01:18:16 14° 238° (WSW) 3,474 11.1 -11.7°
Drops below altitude 10° 01:22:22 10° 212° (SSW) 3,730 11.0 -12.3°
Sets 01:27:33 0° 188° (S) 4,683 11.2 -13.1°
